KE5OYL Weather Reports


Display with metric or nautical units.
time (UTC)temp
F
wind
direction
speed
MPH
gust
MPH
rain 1hr
in
rain 24hr
in
rain mn
in
humidity
%
barometer
mb
20260831104951 83 49 1.0 3.0 0.00 0.00 0.00 66 1015.8
20260831104448 83 50 1.0 5.0 0.00 0.00 0.00 65 1015.7
20260831103943 83 314 2.0 2.0 0.00 0.00 0.00 65 1015.6
20260831103438 83 57 1.0 2.0 0.00 0.00 0.00 64 1015.9
20260831102934 83 26 0.0 2.0 0.00 0.00 0.00 64 1015.8
20260831102434 83 53 2.0 3.0 0.00 0.00 0.00 65 1015.8
20260831101928 83 32 1.0 3.0 0.00 0.00 0.00 65 1015.9
20260831101424 83 45 2.0 3.0 0.00 0.00 0.00 64 1015.4
20260831100920 84 76 2.0 2.0 0.00 0.00 0.00 64 1015.7
20260831100415 84 38 1.0 3.0 0.00 0.00 0.00 65 1015.7
20260831095910 84 147 3.0 5.0 0.00 0.00 0.00 64 1015.5
20260831095410 85 23 0.0 2.0 0.00 0.00 0.00 63 1015.7
20260831094904 84 79 2.0 3.0 0.00 0.00 0.00 64 1015.6
20260831094401 85 33 1.0 5.0 0.00 0.00 0.00 63 1015.7
20260831093856 84 215 6.0 7.0 0.00 0.00 0.00 64 1015.5
20260831093351 85 215 3.0 5.0 0.00 0.00 0.00 63 1015.7
20260831092848 85 283 4.0 7.0 0.00 0.00 0.00 62 1015.6
20260831092343 85 220 5.0 7.0 0.00 0.00 0.00 62 1015.5
20260831091838 85 37 0.0 5.0 0.00 0.00 0.00 62 1015.4
20260831091334 85 302 2.0 6.0 0.00 0.00 0.00 61 1015.3
20260831090829 85 158 4.0 8.0 0.00 0.00 0.00 61 1015.3
20260831090325 85 151 3.0 7.0 0.00 0.00 0.00 60 1015.4
20260831085821 85 318 2.0 5.0 0.00 0.00 0.00 60 1015.4
20260831085315 86 175 5.0 6.0 0.00 0.00 0.00 59 1015.1
20260831084810 86 245 6.0 9.0 0.00 0.00 0.00 59 1015.3
20260831084306 86 206 4.0 6.0 0.00 0.00 0.00 58 1015.5
20260831083802 86 190 3.0 8.0 0.00 0.00 0.00 58 1015.3
20260831083257 86 229 7.0 8.0 0.00 0.00 0.00 57 1015.1
20260831082756 86 239 6.0 7.0 0.00 0.00 0.00 56 1015.0
20260831082251 86 217 5.0 8.0 0.00 0.00 0.00 56 1015.1
20260831081747 86 257 5.0 10.0 0.00 0.00 0.00 56 1015.0
20260831081242 86 278 3.0 14.0 0.00 0.00 0.00 55 1015.2
20260831080737 86 256 5.0 13.0 0.00 0.00 0.00 55 1015.2
20260831080232 86 219 6.0 13.0 0.00 0.00 0.00 55 1015.2
20260831075728 86 211 7.0 10.0 0.00 0.00 0.00 54 1015.1
20260831075224 87 245 3.0 8.0 0.00 0.00 0.00 54 1015.1
20260831074722 87 249 8.0 10.0 0.00 0.00 0.00 53 1014.8
20260831074217 87 223 4.0 9.0 0.00 0.00 0.00 53 1014.8
20260831073713 87 228 5.0 10.0 0.00 0.00 0.00 52 1015.2
20260831073211 87 199 9.0 11.0 0.00 0.00 0.00 52 1015.1
20260831072707 87 168 8.0 11.0 0.00 0.00 0.00 51 1015.0
20260831072203 87 280 3.0 8.0 0.00 0.00 0.00 50 1014.8
20260831071703 87 235 5.0 8.0 0.00 0.00 0.00 50 1015.0
20260831071156 87 241 3.0 10.0 0.00 0.00 0.00 49 1015.0
20260831070651 88 215 6.0 14.0 0.00 0.00 0.00 49 1015.0
20260831070145 88 227 4.0 7.0 0.00 0.00 0.00 48 1014.9
20260831065644 88 187 2.0 6.0 0.00 0.00 0.00 48 1015.0
20260831065143 88 290 3.0 5.0 0.00 0.00 0.00 48 1015.1
20260831064638 88 188 3.0 5.0 0.00 0.00 0.00 48 1015.1
20260831064134 88 335 1.0 5.0 0.00 0.00 0.00 48 1014.8
20260831063630 88 330 1.0 2.0 0.00 0.00 0.00 48 1015.1
20260831063124 88 193 3.0 3.0 0.00 0.00 0.00 48 1015.0
20260831062619 88 180 2.0 5.0 0.00 0.00 0.00 48 1015.0
20260831062118 89 187 3.0 3.0 0.00 0.00 0.00 48 1014.9
20260831061616 89 184 3.0 7.0 0.00 0.00 0.00 48 1014.9
20260831061113 89 219 3.0 7.0 0.00 0.00 0.00 48 1015.0
20260831060609 89 191 3.0 3.0 0.00 0.00 0.00 47 1015.0
20260831055603 89 311 2.0 7.0 0.00 0.00 0.00 48 1015.2
20260831055058 89 314 1.0 3.0 0.00 0.00 0.00 48 1015.2
20260831054558 89 224 4.0 5.0 0.00 0.00 0.00 48 1015.0
20260831054057 89 209 3.0 5.0 0.00 0.00 0.00 48 1015.1
20260831053556 89 52 1.0 3.0 0.00 0.00 0.00 48 1015.1
20260831053051 89 218 3.0 3.0 0.00 0.00 0.00 48 1015.1
20260831052549 89 289 2.0 5.0 0.00 0.00 0.00 48 1015.0
20260831052043 89 210 2.0 5.0 0.00 0.00 0.00 48 1015.0
20260831051542 89 54 1.0 6.0 0.00 0.00 0.00 48 1015.0
20260831051036 90 210 3.0 5.0 0.00 0.00 0.00 47 1014.8
20260831050536 90 260 2.0 5.0 0.00 0.00 0.00 47 1014.9
20260831050034 90 28 1.0 3.0 0.00 0.00 0.00 47 1014.8
20260831045533 90 150 3.0 5.0 0.00 0.00 0.00 47 1014.8
20260831045029 90 211 4.0 6.0 0.00 0.00 0.00 47 1015.1
20260831044524 90 220 2.0 6.0 0.00 0.00 0.00 47 1014.6
20260831044020 90 274 2.0 3.0 0.00 0.00 0.00 47 1014.7
20260831043519 90 322 2.0 3.0 0.00 0.00 0.00 46 1014.8
20260831043015 90 198 5.0 8.0 0.00 0.00 0.00 46 1014.9
20260831042514 90 285 2.0 6.0 0.00 0.00 0.00 46 1014.8
20260831042009 90 168 5.0 6.0 0.00 0.00 0.00 46 1014.7
20260831041504 90 229 3.0 6.0 0.00 0.00 0.00 46 1014.8
20260831041004 90 221 4.0 5.0 0.00 0.00 0.00 46 1014.9
20260831040459 90 281 3.0 3.0 0.00 0.00 0.00 46 1014.9
20260831035955 91 325 1.0 3.0 0.00 0.00 0.00 46 1014.8
20260831035450 91 60 2.0 3.0 0.00 0.00 0.00 46 1014.8
20260831034945 91 301 2.0 2.0 0.00 0.00 0.00 45 1014.6
20260831034440 91 154 2.0 5.0 0.00 0.00 0.00 45 1014.7
20260831033935 91 210 3.0 5.0 0.00 0.00 0.00 45 1014.6
20260831033430 92 52 2.0 2.0 0.00 0.00 0.00 44 1014.7
20260831032925 92 32 1.0 2.0 0.00 0.00 0.00 44 1014.5
20260831032420 92 110 3.0 3.0 0.00 0.00 0.00 43 1014.5
20260831031915 92 35 1.0 3.0 0.00 0.00 0.00 43 1014.3
20260831031415 92 94 2.0 3.0 0.00 0.00 0.00 43 1014.5
20260831030909 92 348 1.0 5.0 0.00 0.00 0.00 43 1014.3
20260831030408 93 25 1.0 5.0 0.00 0.00 0.00 42 1014.6
20260831025907 93 15 1.0 3.0 0.00 0.00 0.00 42 1014.4
20260831025406 93 50 2.0 3.0 0.00 0.00 0.00 42 1014.4
20260831024902 93 121 3.0 3.0 0.00 0.00 0.00 42 1014.3
20260831024356 93 54 1.0 2.0 0.00 0.00 0.00 42 1014.3
20260831023856 93 105 1.0 5.0 0.00 0.00 0.00 42 1014.1
20260831023354 93 37 1.0 3.0 0.00 0.00 0.00 42 1014.2
20260831022849 93 54 2.0 3.0 0.00 0.00 0.00 41 1014.0
20260831022348 94 72 1.0 3.0 0.00 0.00 0.00 41 1013.8
20260831021842 94 224 3.0 3.0 0.00 0.00 0.00 41 1014.0
20260831021337 94 53 2.0 6.0 0.00 0.00 0.00 41 1014.0
20260831020833 94 65 2.0 3.0 0.00 0.00 0.00 41 1013.7
20260831020333 94 26 1.0 6.0 0.00 0.00 0.00 41 1013.7
20260831015828 94 157 4.0 6.0 0.00 0.00 0.00 41 1013.6
20260831015324 94 172 4.0 5.0 0.00 0.00 0.00 40 1013.6
20260831014824 94 30 2.0 6.0 0.00 0.00 0.00 40 1013.5
20260831014319 95 60 1.0 8.0 0.00 0.00 0.00 40 1013.4
20260831013815 95 40 2.0 6.0 0.00 0.00 0.00 39 1013.4
20260831013314 95 102 4.0 6.0 0.00 0.00 0.00 39 1013.2
20260831012809 95 103 2.0 6.0 0.00 0.00 0.00 39 1013.5
20260831012306 95 21 1.0 6.0 0.00 0.00 0.00 39 1013.3
20260831011803 96 67 2.0 6.0 0.00 0.00 0.00 38 1013.1
20260831011259 96 21 1.0 6.0 0.00 0.00 0.00 38 1013.2
20260831010755 96 23 1.0 6.0 0.00 0.00 0.00 38 1013.1
20260831010249 96 82 5.0 8.0 0.00 0.00 0.00 38 1013.3
20260831005745 96 192 3.0 6.0 0.00 0.00 0.00 37 1013.0
20260831005241 96 47 3.0 6.0 0.00 0.00 0.00 37 1013.0
20260831004735 96 50 2.0 7.0 0.00 0.00 0.00 37 1013.1
20260831004231 97 291 2.0 5.0 0.00 0.00 0.00 37 1013.1
20260831003727 96 114 6.0 9.0 0.00 0.00 0.00 37 1013.1
20260831003223 97 99 6.0 8.0 0.00 0.00 0.00 37 1013.1
20260831002722 98 93 4.0 8.0 0.00 0.00 0.00 36 1013.0
20260831002216 97 291 1.0 6.0 0.00 0.00 0.00 37 1013.1
20260831001712 97 64 1.0 5.0 0.00 0.00 0.00 37 1013.1
20260831001212 97 54 3.0 7.0 0.00 0.00 0.00 37 1013.0
20260831000709 98 108 5.0 11.0 0.00 0.00 0.00 37 1013.0
20260831000204 98 31 1.0 10.0 0.00 0.00 0.00 36 1013.3
20260830235703 98 55 1.0 9.0 0.00 0.00 0.00 36 1013.3
20260830235158 98 108 7.0 9.0 0.00 0.00 0.00 36 1013.3
20260830234653 98 181 7.0 10.0 0.00 0.00 0.00 36 1013.2
20260830234149 99 43 5.0 10.0 0.00 0.00 0.00 35 1013.2
20260830233644 99 85 6.0 9.0 0.00 0.00 0.00 35 1013.1
20260830233139 99 143 5.0 9.0 0.00 0.00 0.00 35 1013.1
20260830232635 101 138 5.0 7.0 0.00 0.00 0.00 33 1013.3
20260830232131 100 57 2.0 8.0 0.00 0.00 0.00 33 1013.3
20260830231627 99 85 2.0 9.0 0.00 0.00 0.00 34 1013.4
20260830231126 100 130 6.0 13.0 0.00 0.00 0.00 34 1013.1
20260830230622 100 150 6.0 9.0 0.00 0.00 0.00 33 1013.4
20260830230122 101 143 5.0 11.0 0.00 0.00 0.00 32 1013.4
20260830225617 101 193 7.0 8.0 0.00 0.00 0.00 31 1013.3
20260830225112 100 272 2.0 3.0 0.00 0.00 0.00 32 1013.1
20260830224610 100 77 6.0 9.0 0.00 0.00 0.00 33 1013.3
20260830224107 101 115 4.0 6.0 0.00 0.00 0.00 32 1013.4
20260830223603 100 191 9.0 11.0 0.00 0.00 0.00 33 1013.4
20260830223057 100 236 5.0 10.0 0.00 0.00 0.00 32 1013.6
20260830222551 101 233 9.0 11.0 0.00 0.00 0.00 31 1013.4
20260830222042 101 186 5.0 9.0 0.00 0.00 0.00 31 1013.5
20260830221538 101 179 5.0 9.0 0.00 0.00 0.00 31 1013.6
20260830221034 101 292 3.0 8.0 0.00 0.00 0.00 31 1013.4
20260830220533 100 195 9.0 10.0 0.00 0.00 0.00 32 1013.5
20260830220032 101 154 7.0 13.0 0.00 0.00 0.00 32 1013.5
20260830215526 100 284 3.0 10.0 0.00 0.00 0.00 32 1013.5
20260830215020 100 242 5.0 7.0 0.00 0.00 0.00 32 1013.4
20260830214516 100 162 11.0 13.0 0.00 0.00 0.00 32 1013.5
20260830214010 100 136 5.0 10.0 0.00 0.00 0.00 32 1013.3
20260830213505 100 136 4.0 6.0 0.00 0.00 0.00 32 1013.8
20260830213000 100 173 5.0 9.0 0.00 0.00 0.00 32 1013.8
20260830212456 100 230 8.0 13.0 0.00 0.00 0.00 32 1013.7
20260830211955 100 328 1.0 7.0 0.00 0.00 0.00 32 1013.7
20260830211450 100 221 3.0 8.0 0.00 0.00 0.00 33 1013.8
20260830210945 100 125 4.0 7.0 0.00 0.00 0.00 32 1013.9
20260830210440 99 39 3.0 9.0 0.00 0.00 0.00 33 1014.0
20260830205937 99 131 7.0 10.0 0.00 0.00 0.00 33 1014.0
20260830205436 100 203 5.0 11.0 0.00 0.00 0.00 33 1014.1
20260830204932 99 20 3.0 5.0 0.00 0.00 0.00 34 1014.0
20260830204431 99 153 7.0 9.0 0.00 0.00 0.00 33 1014.1
20260830203926 98 150 6.0 8.0 0.00 0.00 0.00 35 1014.2
20260830203423 99 194 5.0 6.0 0.00 0.00 0.00 35 1014.4
20260830202921 99 205 8.0 11.0 0.00 0.00 0.00 35 1014.5
20260830202417 98 185 2.0 10.0 0.00 0.00 0.00 36 1014.5
20260830201913 99 67 5.0 13.0 0.00 0.00 0.00 35 1014.6
20260830201406 99 191 7.0 10.0 0.00 0.00 0.00 35 1014.7
20260830200901 99 227 9.0 11.0 0.00 0.00 0.00 35 1014.6
20260830200355 100 153 5.0 9.0 0.00 0.00 0.00 33 1014.8
20260830195850 98 181 6.0 8.0 0.00 0.00 0.00 34 1015.0
20260830195350 98 200 8.0 13.0 0.00 0.00 0.00 35 1015.0
20260830194848 99 79 8.0 15.0 0.00 0.00 0.00 35 1015.0
20260830194343 100 199 6.0 8.0 0.00 0.00 0.00 33 1015.0
20260830193837 99 86 8.0 13.0 0.00 0.00 0.00 35 1015.2
20260830193331 99 218 4.0 11.0 0.00 0.00 0.00 34 1015.3
20260830192828 99 99 5.0 11.0 0.00 0.00 0.00 35 1015.1
20260830192327 99 253 7.0 11.0 0.00 0.00 0.00 35 1015.3
20260830191823 99 181 6.0 9.0 0.00 0.00 0.00 34 1015.3
20260830191322 99 198 7.0 14.0 0.00 0.00 0.00 35 1015.4
20260830190819 98 192 7.0 13.0 0.00 0.00 0.00 36 1015.6
20260830190318 98 189 5.0 15.0 0.00 0.00 0.00 36 1015.6
20260830185817 98 105 7.0 13.0 0.00 0.00 0.00 36 1015.8
20260830185313 97 82 5.0 8.0 0.00 0.00 0.00 37 1015.8
20260830184808 98 191 7.0 8.0 0.00 0.00 0.00 37 1015.9
20260830184307 98 135 9.0 13.0 0.00 0.00 0.00 36 1015.8
20260830183802 99 147 7.0 14.0 0.00 0.00 0.00 37 1015.9
20260830183302 98 211 5.0 11.0 0.00 0.00 0.00 36 1016.1
20260830182757 97 205 9.0 14.0 0.00 0.00 0.00 37 1015.9
20260830182253 97 193 8.0 13.0 0.00 0.00 0.00 37 1016.2
20260830181749 98 192 5.0 9.0 0.00 0.00 0.00 37 1016.1
20260830181244 97 132 4.0 10.0 0.00 0.00 0.00 38 1016.2
20260830180743 98 151 9.0 13.0 0.00 0.00 0.00 38 1016.4
20260830180237 96 206 9.0 15.0 0.00 0.00 0.00 39 1016.5
20260830175732 97 163 7.0 11.0 0.00 0.00 0.00 39 1016.4
20260830175227 97 151 6.0 11.0 0.00 0.00 0.00 39 1016.6
20260830174721 96 167 7.0 13.0 0.00 0.00 0.00 41 1016.6
20260830174217 96 215 6.0 11.0 0.00 0.00 0.00 41 1016.5
20260830173717 96 210 5.0 10.0 0.00 0.00 0.00 42 1016.6
20260830173212 96 208 9.0 15.0 0.00 0.00 0.00 41 1016.9
20260830172709 96 188 9.0 14.0 0.00 0.00 0.00 41 1016.8
20260830172205 96 193 6.0 9.0 0.00 0.00 0.00 42 1016.9
20260830171700 96 179 6.0 9.0 0.00 0.00 0.00 41 1017.0
20260830171155 95 148 10.0 13.0 0.00 0.00 0.00 42 1017.2
20260830170650 95 211 8.0 10.0 0.00 0.00 0.00 42 1016.9
20260830170149 95 270 3.0 9.0 0.00 0.00 0.00 42 1017.3
20260830165644 95 138 7.0 9.0 0.00 0.00 0.00 42 1017.2
20260830165139 95 195 5.0 7.0 0.00 0.00 0.00 43 1017.2
20260830164636 94 89 3.0 9.0 0.00 0.00 0.00 45 1017.3
20260830164131 94 231 8.0 10.0 0.00 0.00 0.00 44 1017.3
20260830163628 94 171 7.0 10.0 0.00 0.00 0.00 46 1017.4
20260830163127 93 237 6.0 8.0 0.00 0.00 0.00 47 1017.6
20260830162623 95 210 6.0 9.0 0.00 0.00 0.00 46 1017.6
20260830162118 93 40 1.0 2.0 0.00 0.00 0.00 48 1017.5
20260830161613 93 208 5.0 14.0 0.00 0.00 0.00 48 1017.6
20260830161108 92 260 3.0 9.0 0.00 0.00 0.00 49 1017.6
20260830160604 92 179 2.0 6.0 0.00 0.00 0.00 50 1017.7
20260830160058 91 112 3.0 6.0 0.00 0.00 0.00 52 1017.8
20260830155555 91 185 4.0 7.0 0.00 0.00 0.00 52 1017.4
20260830155050 91 222 9.0 10.0 0.00 0.00 0.00 53 1017.7
20260830154545 91 192 4.0 7.0 0.00 0.00 0.00 53 1017.7
20260830154042 90 179 5.0 8.0 0.00 0.00 0.00 53 1017.6
20260830153538 91 170 5.0 8.0 0.00 0.00 0.00 53 1017.7
20260830153037 90 250 3.0 6.0 0.00 0.00 0.00 55 1017.6
20260830152532 89 255 7.0 9.0 0.00 0.00 0.00 56 1017.7
20260830152031 89 236 6.0 10.0 0.00 0.00 0.00 56 1017.7
20260830151530 89 205 3.0 5.0 0.00 0.00 0.00 56 1017.6
20260830151025 89 60 2.0 6.0 0.00 0.00 0.00 58 1017.5
20260830150525 89 123 2.0 6.0 0.00 0.00 0.00 58 1017.6
20260830150020 87 305 3.0 5.0 0.00 0.00 0.00 61 1017.6
20260830145514 88 100 2.0 6.0 0.00 0.00 0.00 61 1017.8
20260830145009 87 83 2.0 3.0 0.00 0.00 0.00 62 1017.6
20260830144505 87 90 2.0 3.0 0.00 0.00 0.00 62 1017.6
20260830144001 86 342 1.0 3.0 0.00 0.00 0.00 62 1017.5
20260830143456 85 164 4.0 5.0 0.00 0.00 0.00 64 1017.8
20260830142954 86 188 4.0 5.0 0.00 0.00 0.00 64 1017.7
20260830142449 84 120 3.0 3.0 0.00 0.00 0.00 65 1017.7
20260830141944 84 123 3.0 5.0 0.00 0.00 0.00 66 1017.7
20260830141440 84 41 0.0 5.0 0.00 0.00 0.00 66 1017.8
20260830140935 83 213 3.0 5.0 0.00 0.00 0.00 67 1017.8
20260830140430 84 137 3.0 3.0 0.00 0.00 0.00 65 1017.8
20260830135929 83 150 3.0 3.0 0.00 0.00 0.00 67 1017.9
20260830135425 83 63 1.0 5.0 0.00 0.00 0.00 67 1017.6
20260830134920 82 67 3.0 3.0 0.00 0.00 0.00 68 1017.6
20260830134416 81 45 2.0 2.0 0.00 0.00 0.00 69 1017.6
20260830133911 82 112 3.0 5.0 0.00 0.00 0.00 68 1017.4
20260830133407 81 35 1.0 3.0 0.00 0.00 0.00 70 1017.7
20260830132902 81 42 1.0 2.0 0.00 0.00 0.00 69 1017.8
20260830132358 81 78 4.0 5.0 0.00 0.00 0.00 69 1017.6
20260830131857 81 125 3.0 7.0 0.00 0.00 0.00 69 1017.5
20260830131356 80 39 2.0 2.0 0.00 0.00 0.00 70 1017.6
20260830130851 81 40 2.0 5.0 0.00 0.00 0.00 69 1017.5
20260830130347 80 74 2.0 3.0 0.00 0.00 0.00 70 1017.3
20260830125846 80 49 2.0 5.0 0.00 0.00 0.00 70 1017.5
20260830125342 80 66 3.0 5.0 0.00 0.00 0.00 69 1017.4
20260830124839 80 20 0.0 1.0 0.00 0.00 0.00 70 1017.2
20260830124334 79 27 0.0 2.0 0.00 0.00 0.00 71 1017.1
20260830123831 79 47 2.0 2.0 0.00 0.00 0.00 70 1017.2
20260830123327 79 30 1.0 2.0 0.00 0.00 0.00 71 1016.8
20260830122824 79 134 3.0 5.0 0.00 0.00 0.00 69 1016.7
20260830122319 79 77 3.0 3.0 0.00 0.00 0.00 70 1016.6
20260830121814 79 34 2.0 3.0 0.00 0.00 0.00 70 1016.7
20260830121314 79 85 3.0 3.0 0.00 0.00 0.00 70 1016.7
20260830120809 79 25 0.0 2.0 0.00 0.00 0.00 70 1016.8
20260830120305 79 51 3.0 3.0 0.00 0.00 0.00 70 1016.5
20260830115801 79 54 2.0 3.0 0.00 0.00 0.00 69 1016.4
20260830115256 79 63 2.0 3.0 0.00 0.00 0.00 69 1016.4
20260830114752 79 91 3.0 3.0 0.00 0.00 0.00 69 1016.2
20260830114248 79 42 2.0 3.0 0.00 0.00 0.00 68 1016.3
20260830113743 80 43 2.0 2.0 0.00 0.00 0.00 67 1016.3
20260830113238 79 32 0.0 1.0 0.00 0.00 0.00 67 1016.5
20260830112734 79 32 0.0 1.0 0.00 0.00 0.00 67 1016.2
20260830112230 79 26 1.0 1.0 0.00 0.00 0.00 68 1015.9
20260830111725 79 17 0.0 2.0 0.00 0.00 0.00 67 1016.1
20260830111215 80 38 1.0 3.0 0.00 0.00 0.00 67 1016.1
20260830110715 80 56 1.0 2.0 0.00 0.00 0.00 67 1016.0
20260830110212 80 63 1.0 3.0 0.00 0.00 0.00 66 1016.0
20260830105710 80 55 3.0 3.0 0.00 0.00 0.00 66 1015.9
20260830105207 80 48 1.0 3.0 0.00 0.00 0.00 66 1015.9